This is the latest recevied weather packets stored in our database for station/object KI8L. If no packets are shown the sender has not sent any weather packets the latest 10 day(s).
| Time | Temp. | Humidity | Pressure | Rain* | Wind** | Luminosity | Snow |
|---|---|---|---|---|---|---|---|
| 1778029709 | 10° C | 99% | 1010.5 hPa | 7.87 mm | - | 0 W/m² | - |
| 1778029406 | 10° C | 99% | 1010.4 hPa | 11.94 mm | - | 0 W/m² | - |
| 1778029103 | 10° C | 99% | 1010.4 hPa | 13.72 mm | - | 0 W/m² | - |
| 1778028800 | 10.56° C | 99% | 1010.2 hPa | 9.65 mm | - | 0 W/m² | - |
| 1778028496 | 10.56° C | 99% | 1010 hPa | 8.89 mm | - | 0 W/m² | - |
| 1778028194 | 11.11° C | 99% | 1010.2 hPa | 8.89 mm | - | 0 W/m² | - |
| 1778027889 | 11.11° C | 99% | 1010.3 hPa | 9.65 mm | - | 0 W/m² | - |
| 1778027586 | 11.11° C | 99% | 1009.9 hPa | 8.89 mm | - | 0 W/m² | - |
| 1778027282 | 11.11° C | 99% | 1009.9 hPa | 6.1 mm | - | 0 W/m² | - |
| 1778026979 | 11.11° C | 99% | 1009.9 hPa | 3.05 mm | - | 0 W/m² | - |
| 1778026674 | 11.11° C | 99% | 1009.8 hPa | 3.05 mm | - | 1 W/m² | - |
| 1778026372 | 11.11° C | 99% | 1009.7 hPa | 7.11 mm | - | 1 W/m² | - |
| 1778026069 | 11.11° C | 99% | 1009.7 hPa | 7.87 mm | - | 1 W/m² | - |
| 1778025767 | 11.67° C | 99% | 1009.9 hPa | 7.87 mm | - | 2 W/m² | - |
| 1778025463 | 12.22° C | 99% | 1010 hPa | 7.87 mm | - | 2 W/m² | - |
| 1778025161 | 12.22° C | 99% | 1010 hPa | 6.1 mm | - | 1 W/m² | - |
| 1778024858 | 12.78° C | 99% | 1009.9 hPa | 4.32 mm | - | 3 W/m² | - |
| 1778024555 | 12.78° C | 99% | 1009.9 hPa | 1.27 mm | - | 3 W/m² | - |
| 1778024251 | 13.33° C | 99% | 1009.7 hPa | 0 mm | - | 6 W/m² | - |
| 1778023950 | 13.33° C | 99% | 1009.9 hPa | 1.78 mm | - | 6 W/m² | - |
| 1778023647 | 13.33° C | 99% | 1009.8 hPa | 1.78 mm | - | 8 W/m² | - |
| 1778023344 | 13.33° C | 99% | 1009.9 hPa | 0 mm | - | 6 W/m² | - |
| 1778023041 | 13.89° C | 99% | 1010 hPa | 0 mm | - | 9 W/m² | - |
| 1778022740 | 13.89° C | 99% | 1010.1 hPa | 1.27 mm | - | 14 W/m² | - |
| 1778022437 | 13.89° C | 99% | 1009.9 hPa | 1.27 mm | - | 13 W/m² | - |
* Rain latest hour (hover to see other rain measurements)
** Current wind speed in m/s (hover to see current wind gust speed)